Вернуться в каталог

BREEZE-M DEB

TANK

АктивенHEO
NORAD 39362·DEBRIS·🇷🇺 Russia

Запущен Oct 25, 2013 с Baikonur Cosmodrome

Loading…

Ближайшие Пролёты (ближайшие 24 часа)

TLE

СвежийSource: Space-Track

Эпоха: Sep 14, 2026, 05:42 UTC

1 39362U 13058C   26257.23805696  .00002020  00000-0  37241-3 0  9995
2 39362  49.5186 216.6533 5127561 260.1089  40.8481  5.40135945248338

Отслеживайте BREEZE-M DEB в реальном времени с AllMySat

Download on the App Store